Home   Weather   Leeds   Past weeks

Flag for United Kingdom Past Weather in Leeds, England, United Kingdom — Yesterday and Last 2 Weeks

Now
46 °F

Clear.


Feels Like: 40 °F
Forecast: 46 / 57 °F
Wind: 16 mph from Southeast

Location: Leeds And Bradford

Current Time: Apr 30, 2017 at 8:27:47 am

Latest Report: Apr 30, 2017 at 7:50 am


Visibility: N/A

Pressure: 29.74 "Hg

Humidity: 76%

Dew Point: 39 °F

Location of LeedsLocation

Past Weather in Leeds — Graph

°F

Leeds Temperature Yesterday

Maximum temperature yesterday: 52 °F (at 2:20 pm)
Minimum temperature yesterday: 43 °F (at 2:20 am)
Average temperature yesterday: 47 °F

High & Low Weather Summary for the Past Weeks

 TemperatureHumidityPressure
High55 °F (Apr 20, 1:50 pm)100% (Apr 16, 1:20 pm)30.60 "Hg (Apr 16, 1:20 pm)
Low30 °F (Apr 18, 5:50 am)40% (Apr 24, 4:20 pm)29.74 "Hg (Apr 30, 5:50 am)
Average44 °F78%30.17 "Hg
* Reported Apr 15 7:20 am — Apr 30 7:20 am, Leeds, Weather by CustomWeather, © 2017

Note: Actual official high and low records may vary slightly from our data, if they occured in-between our weather recording intervals... More about our weather records

Advertising

Leeds Weather History for the Previous 24 Hours

Scroll right to see more
 ConditionsComfort  
Time TempWeatherWind HumidityBarometerVisibility
7:20 am
Sun, Apr 30
45 °FClear.15 mph81%29.74 "Hg6 mi
6:50 am43 °FClear.14 mph87%29.74 "Hg6 mi
6:20 am43 °FClear.14 mph87%29.74 "Hg6 mi
5:50 am43 °FPassing clouds.14 mph87%29.74 "Hg5 mi
5:20 am43 °FPassing clouds.13 mph87%29.77 "HgN/A
4:50 am43 °FClear.13 mph87%29.77 "Hg10 mi
4:20 am43 °FClear.14 mph87%29.77 "Hg10 mi
3:50 am43 °FClear.14 mph87%29.77 "Hg10 mi
3:20 am43 °FClear.12 mph87%29.77 "Hg10 mi
2:50 am43 °FClear.9 mph87%29.80 "Hg10 mi
2:20 am43 °FClear.12 mph87%29.80 "Hg10 mi
1:50 am45 °FClear.13 mph81%29.80 "Hg10 mi
1:20 am45 °FClear.10 mph87%29.80 "Hg10 mi
12:50 am45 °FClear.13 mph87%29.83 "Hg10 mi
12:20 am46 °FClear.12 mph87%29.83 "Hg10 mi
11:50 pm
Sat, Apr 29
46 °FClear.10 mph87%29.83 "Hg10 mi
11:20 pm48 °FPassing clouds.10 mph82%29.83 "HgN/A
10:50 pm46 °FPartly cloudy.8 mph82%29.83 "HgN/A
10:20 pm48 °FPartly cloudy.12 mph76%29.83 "HgN/A
9:50 pm48 °FPartly cloudy.9 mph71%29.83 "HgN/A
9:20 pm48 °FPassing clouds.7 mph71%29.86 "HgN/A
8:50 pm50 °FPartly cloudy.7 mph62%29.86 "HgN/A
8:20 pm50 °FPartly sunny.8 mph62%29.86 "HgN/A
7:50 pm50 °FOvercast.9 mph62%29.86 "HgN/A
7:20 pm50 °FPartly sunny.7 mph62%29.86 "HgN/A
6:50 pm50 °FPartly sunny.5 mph58%29.86 "HgN/A
6:20 pm50 °FPartly sunny.7 mph58%29.86 "HgN/A
5:50 pm50 °FPartly sunny.8 mph58%29.86 "HgN/A
5:20 pm50 °FPartly sunny.12 mph58%29.86 "HgN/A
4:50 pm52 °FBroken clouds.12 mph54%29.86 "HgN/A
4:20 pm52 °FBroken clouds.10 mph54%29.86 "HgN/A
3:50 pm52 °FPartly sunny.7 mph54%29.89 "HgN/A
3:20 pm52 °FPartly sunny.8 mph62%29.89 "HgN/A
2:50 pm50 °FScattered clouds.9 mph67%29.89 "HgN/A
2:20 pm52 °FScattered clouds.7 mph62%29.89 "HgN/A
1:50 pm50 °FScattered clouds.7 mph67%29.89 "HgN/A
1:20 pm50 °FScattered clouds.7 mph67%29.89 "HgN/A
12:50 pm50 °FScattered clouds.5 mph67%29.92 "HgN/A
12:20 pm50 °FScattered clouds.2 mph67%29.92 "HgN/A
11:50 am50 °FScattered clouds.3 mph67%29.92 "HgN/A
11:20 am48 °FScattered clouds.3 mph71%29.92 "HgN/A
10:50 am46 °FScattered clouds.2 mph76%29.92 "HgN/A
10:20 am46 °FScattered clouds.1 mph82%29.92 "HgN/A
9:50 am46 °FScattered clouds.3 mph76%29.95 "HgN/A
9:20 am46 °FPartly sunny.2 mph82%29.95 "HgN/A
8:50 am45 °FPartly sunny.2 mph81%29.95 "HgN/A
8:20 am45 °FPartly sunny.2 mph87%29.95 "HgN/A
Weather by CustomWeather, © 2017

See weather overviewHow to use our weather pages